Location: Eaton Estates
(41.3089°N, 82.0057°W)
Time: 13:24:36
(UTC+00:00)

Cosmos 405 Rocket - Pass Details

Date: 17 June 2021
Orbit: 489 x 552 km, 81.3° (Epoch: 30 July)

Event Time Altitude Azimuth Distance (km) Brightness Sun altitude
Exits shadow 07:24:39 27° 284° (WNW) 978 3.9 -20.0°
Maximum altitude 07:24:42 27° 286° (WNW) 978 3.9 -20.0°
Drops below altitude 10° 07:27:53 10° 345° (NNW) 1,688 5.9 -19.7°
Sets 07:30:14 0° 358° (N) 2,574 7.2 -19.5°
